owner,sensor,date,latitude,longitude,sea_surface_height_above_sea_level,qcFlag 
TCOON,ioos:station:TCOON:009:1,2019-08-01T00:24:00Z,27.8398,-97.0727,1.493,11111222 
TCOON,ioos:station:TCOON:009:1,2019-08-01T01:24:00Z,27.8398,-97.0727,1.418,11111222 
TCOON,ioos:station:TCOON:009:1,2019-08-01T02:24:00Z,27.8398,-97.0727,1.394,11111222 
TCOON,ioos:station:TCOON:009:1,2019-08-01T03:24:00Z,27.8398,-97.0727,1.404,11111222 
TCOON,ioos:station:TCOON:009:1,2019-08-01T04:24:00Z,27.8398,-97.0727,1.476,11111222 
TCOON,ioos:station:TCOON:009:1,2019-08-01T05:24:00Z,27.8398,-97.0727,1.525,11111222 
TCOON,ioos:station:TCOON:009:1,2019-08-01T06:24:00Z,27.8398,-97.0727,1.607,11111222 
TCOON,ioos:station:TCOON:009:1,2019-08-01T07:24:00Z,27.8398,-97.0727,1.709,11111222 
TCOON,ioos:station:TCOON:009:1,2019-08-01T08:24:00Z,27.8398,-97.0727,1.764,11111222 
TCOON,ioos:station:TCOON:009:1,2019-08-01T09:24:00Z,27.8398,-97.0727,1.8,11111222 
TCOON,ioos:station:TCOON:009:1,2019-08-01T10:24:00Z,27.8398,-97.0727,1.841,11111222 
TCOON,ioos:station:TCOON:009:1,2019-08-01T11:24:00Z,27.8398,-97.0727,1.868,11111222 
TCOON,ioos:station:TCOON:009:1,2019-08-01T12:24:00Z,27.8398,-97.0727,1.846,11111222 
TCOON,ioos:station:TCOON:009:1,2019-08-01T13:24:00Z,27.8398,-97.0727,1.817,11111222 
TCOON,ioos:station:TCOON:009:1,2019-08-01T14:24:00Z,27.8398,-97.0727,1.833,11111222 
TCOON,ioos:station:TCOON:009:1,2019-08-01T15:24:00Z,27.8398,-97.0727,1.868,11111222 
TCOON,ioos:station:TCOON:009:1,2019-08-01T16:24:00Z,27.8398,-97.0727,1.929,11111222 
TCOON,ioos:station:TCOON:009:1,2019-08-01T17:24:00Z,27.8398,-97.0727,1.865,11111222 
TCOON,ioos:station:TCOON:009:1,2019-08-01T18:24:00Z,27.8398,-97.0727,1.885,11111222 
TCOON,ioos:station:TCOON:009:1,2019-08-01T19:24:00Z,27.8398,-97.0727,1.84,11111222 
TCOON,ioos:station:TCOON:009:1,2019-08-01T20:24:00Z,27.8398,-97.0727,1.825,11111222 
TCOON,ioos:station:TCOON:009:1,2019-08-01T21:24:00Z,27.8398,-97.0727,1.833,11111222 
TCOON,ioos:station:TCOON:009:1,2019-08-01T22:24:00Z,27.8398,-97.0727,1.78,11111222 
TCOON,ioos:station:TCOON:009:1,2019-08-01T23:24:00Z,27.8398,-97.0727,1.654,11111222 
TCOON,ioos:station:TCOON:009:1,2019-08-02T00:24:00Z,27.8398,-97.0727,1.558,11111222 
TCOON,ioos:station:TCOON:009:1,2019-08-02T01:24:00Z,27.8398,-97.0727,1.518,11111222 
TCOON,ioos:station:TCOON:009:1,2019-08-02T02:24:00Z,27.8398,-97.0727,1.482,11111222 
TCOON,ioos:station:TCOON:009:1,2019-08-02T03:24:00Z,27.8398,-97.0727,1.45,11111222 
TCOON,ioos:station:TCOON:009:1,2019-08-02T04:24:00Z,27.8398,-97.0727,1.489,11111222 
TCOON,ioos:station:TCOON:009:1,2019-08-02T05:24:00Z,27.8398,-97.0727,1.514,11111222 
TCOON,ioos:station:TCOON:009:1,2019-08-02T08:24:00Z,27.8398,-97.0727,1.796,11111222 
TCOON,ioos:station:TCOON:009:1,2019-08-02T09:24:00Z,27.8398,-97.0727,1.838,11111222 
TCOON,ioos:station:TCOON:009:1,2019-08-02T12:24:00Z,27.8398,-97.0727,1.866,11111222 
TCOON,ioos:station:TCOON:009:1,2019-08-02T14:24:00Z,27.8398,-97.0727,1.87,11111222 
TCOON,ioos:station:TCOON:009:1,2019-08-02T15:24:00Z,27.8398,-97.0727,1.87,11111222 
TCOON,ioos:station:TCOON:009:1,2019-08-02T16:24:00Z,27.8398,-97.0727,1.869,11111222 
TCOON,ioos:station:TCOON:009:1,2019-08-02T17:24:00Z,27.8398,-97.0727,1.865,11111222 
TCOON,ioos:station:TCOON:009:1,2019-08-02T18:24:00Z,27.8398,-97.0727,1.875,11111222 
TCOON,ioos:station:TCOON:009:1,2019-08-02T19:24:00Z,27.8398,-97.0727,1.872,11111222 
TCOON,ioos:station:TCOON:009:1,2019-08-02T21:24:00Z,27.8398,-97.0727,1.892,11111222 
TCOON,ioos:station:TCOON:009:1,2019-08-02T22:24:00Z,27.8398,-97.0727,1.833,11111222 
TCOON,ioos:station:TCOON:009:1,2019-08-02T23:24:00Z,27.8398,-97.0727,1.806,11111222 
TCOON,ioos:station:TCOON:009:1,2019-08-03T00:24:00Z,27.8398,-97.0727,1.702,11111222 
TCOON,ioos:station:TCOON:009:1,2019-08-03T01:24:00Z,27.8398,-97.0727,1.633,11111222 
TCOON,ioos:station:TCOON:009:1,2019-08-03T02:24:00Z,27.8398,-97.0727,1.568,11111222 
TCOON,ioos:station:TCOON:009:1,2019-08-03T03:24:00Z,27.8398,-97.0727,1.543,11111222 
TCOON,ioos:station:TCOON:009:1,2019-08-03T04:24:00Z,27.8398,-97.0727,1.493,11111222 
TCOON,ioos:station:TCOON:009:1,2019-08-03T05:24:00Z,27.8398,-97.0727,1.533,11111222 
TCOON,ioos:station:TCOON:009:1,2019-08-03T06:24:00Z,27.8398,-97.0727,1.589,11111222 
TCOON,ioos:station:TCOON:009:1,2019-08-03T07:24:00Z,27.8398,-97.0727,1.645,11111222 
TCOON,ioos:station:TCOON:009:1,2019-08-03T08:24:00Z,27.8398,-97.0727,1.739,11111222 
TCOON,ioos:station:TCOON:009:1,2019-08-03T09:24:00Z,27.8398,-97.0727,1.794,11111222 
TCOON,ioos:station:TCOON:009:1,2019-08-03T10:24:00Z,27.8398,-97.0727,1.855,11111222 
TCOON,ioos:station:TCOON:009:1,2019-08-03T11:24:00Z,27.8398,-97.0727,1.876,11111222 
TCOON,ioos:station:TCOON:009:1,2019-08-03T12:24:00Z,27.8398,-97.0727,1.867,11111222 
TCOON,ioos:station:TCOON:009:1,2019-08-03T13:24:00Z,27.8398,-97.0727,1.843,11111222 
TCOON,ioos:station:TCOON:009:1,2019-08-03T14:24:00Z,27.8398,-97.0727,1.857,11111222 
TCOON,ioos:station:TCOON:009:1,2019-08-03T15:24:00Z,27.8398,-97.0727,1.872,11111222 
TCOON,ioos:station:TCOON:009:1,2019-08-03T16:24:00Z,27.8398,-97.0727,1.861,11111222 
TCOON,ioos:station:TCOON:009:1,2019-08-03T17:24:00Z,27.8398,-97.0727,1.882,11111222 
TCOON,ioos:station:TCOON:009:1,2019-08-03T18:24:00Z,27.8398,-97.0727,1.858,11111222 
TCOON,ioos:station:TCOON:009:1,2019-08-03T19:24:00Z,27.8398,-97.0727,1.874,11111222 
TCOON,ioos:station:TCOON:009:1,2019-08-03T20:24:00Z,27.8398,-97.0727,1.879,11111222 
TCOON,ioos:station:TCOON:009:1,2019-08-03T21:24:00Z,27.8398,-97.0727,1.885,11111222 
TCOON,ioos:station:TCOON:009:1,2019-08-03T22:24:00Z,27.8398,-97.0727,1.882,11111222 
TCOON,ioos:station:TCOON:009:1,2019-08-03T23:24:00Z,27.8398,-97.0727,1.86,11111222 
TCOON,ioos:station:TCOON:009:1,2019-08-04T00:24:00Z,27.8398,-97.0727,1.804,11111222 
TCOON,ioos:station:TCOON:009:1,2019-08-04T01:24:00Z,27.8398,-97.0727,1.754,11111222 
TCOON,ioos:station:TCOON:009:1,2019-08-04T02:24:00Z,27.8398,-97.0727,1.679,11111222 
TCOON,ioos:station:TCOON:009:1,2019-08-04T03:24:00Z,27.8398,-97.0727,1.646,11111222 
TCOON,ioos:station:TCOON:009:1,2019-08-04T04:24:00Z,27.8398,-97.0727,1.603,11111222 
TCOON,ioos:station:TCOON:009:1,2019-08-04T05:24:00Z,27.8398,-97.0727,1.602,11111222 
TCOON,ioos:station:TCOON:009:1,2019-08-04T06:24:00Z,27.8398,-97.0727,1.584,11111222 
TCOON,ioos:station:TCOON:009:1,2019-08-04T07:24:00Z,27.8398,-97.0727,1.644,11111222 
TCOON,ioos:station:TCOON:009:1,2019-08-04T08:24:00Z,27.8398,-97.0727,1.721,11111222 
TCOON,ioos:station:TCOON:009:1,2019-08-04T09:24:00Z,27.8398,-97.0727,1.77,11111222 
TCOON,ioos:station:TCOON:009:1,2019-08-04T10:24:00Z,27.8398,-97.0727,1.819,11111222 
TCOON,ioos:station:TCOON:009:1,2019-08-04T11:24:00Z,27.8398,-97.0727,1.838,11111222 
TCOON,ioos:station:TCOON:009:1,2019-08-04T12:24:00Z,27.8398,-97.0727,1.846,11111222 
TCOON,ioos:station:TCOON:009:1,2019-08-04T13:24:00Z,27.8398,-97.0727,1.833,11111222 
TCOON,ioos:station:TCOON:009:1,2019-08-04T14:24:00Z,27.8398,-97.0727,1.836,11111222 
TCOON,ioos:station:TCOON:009:1,2019-08-04T15:24:00Z,27.8398,-97.0727,1.842,11111222 
TCOON,ioos:station:TCOON:009:1,2019-08-04T16:24:00Z,27.8398,-97.0727,1.842,11111222 
TCOON,ioos:station:TCOON:009:1,2019-08-04T17:24:00Z,27.8398,-97.0727,1.822,11111222 
TCOON,ioos:station:TCOON:009:1,2019-08-04T18:24:00Z,27.8398,-97.0727,1.799,11111222 
TCOON,ioos:station:TCOON:009:1,2019-08-04T19:24:00Z,27.8398,-97.0727,1.805,11111222 
TCOON,ioos:station:TCOON:009:1,2019-08-04T20:24:00Z,27.8398,-97.0727,1.805,11111222 
TCOON,ioos:station:TCOON:009:1,2019-08-04T21:24:00Z,27.8398,-97.0727,1.826,11111222 
TCOON,ioos:station:TCOON:009:1,2019-08-04T22:24:00Z,27.8398,-97.0727,1.848,11111222 
TCOON,ioos:station:TCOON:009:1,2019-08-04T23:24:00Z,27.8398,-97.0727,1.863,11111222 
TCOON,ioos:station:TCOON:009:1,2019-08-05T00:24:00Z,27.8398,-97.0727,1.863,11111222 
TCOON,ioos:station:TCOON:009:1,2019-08-05T01:24:00Z,27.8398,-97.0727,1.807,11111222 
TCOON,ioos:station:TCOON:009:1,2019-08-05T02:24:00Z,27.8398,-97.0727,1.802,11111222 
TCOON,ioos:station:TCOON:009:1,2019-08-05T03:24:00Z,27.8398,-97.0727,1.747,11111222 
TCOON,ioos:station:TCOON:009:1,2019-08-05T04:24:00Z,27.8398,-97.0727,1.712,11111222 
TCOON,ioos:station:TCOON:009:1,2019-08-05T05:24:00Z,27.8398,-97.0727,1.704,11111222 
TCOON,ioos:station:TCOON:009:1,2019-08-05T06:24:00Z,27.8398,-97.0727,1.652,11111222 
TCOON,ioos:station:TCOON:009:1,2019-08-05T07:24:00Z,27.8398,-97.0727,1.7,11111222 
TCOON,ioos:station:TCOON:009:1,2019-08-05T08:24:00Z,27.8398,-97.0727,1.724,11111222 
TCOON,ioos:station:TCOON:009:1,2019-08-05T09:24:00Z,27.8398,-97.0727,1.752,11111222 
TCOON,ioos:station:TCOON:009:1,2019-08-05T10:24:00Z,27.8398,-97.0727,1.79,11111222 
TCOON,ioos:station:TCOON:009:1,2019-08-05T11:24:00Z,27.8398,-97.0727,1.812,11111222 
TCOON,ioos:station:TCOON:009:1,2019-08-05T12:24:00Z,27.8398,-97.0727,1.872,11111222 
TCOON,ioos:station:TCOON:009:1,2019-08-05T13:24:00Z,27.8398,-97.0727,1.852,11111222 
TCOON,ioos:station:TCOON:009:1,2019-08-05T14:24:00Z,27.8398,-97.0727,1.83,11111222 
TCOON,ioos:station:TCOON:009:1,2019-08-05T15:24:00Z,27.8398,-97.0727,1.803,11111222 
TCOON,ioos:station:TCOON:009:1,2019-08-05T16:30:00Z,27.8398,-97.0727,1.77,11111222 
TCOON,ioos:station:TCOON:009:1,2019-08-05T17:30:00Z,27.8398,-97.0727,1.714,11111222 
TCOON,ioos:station:TCOON:009:1,2019-08-05T18:24:00Z,27.8398,-97.0727,1.763,11111222 
TCOON,ioos:station:TCOON:009:1,2019-08-05T19:24:00Z,27.8398,-97.0727,1.769,11111222 
TCOON,ioos:station:TCOON:009:1,2019-08-05T20:24:00Z,27.8398,-97.0727,1.724,11111222 
TCOON,ioos:station:TCOON:009:1,2019-08-05T21:24:00Z,27.8398,-97.0727,1.759,11111222 
TCOON,ioos:station:TCOON:009:1,2019-08-05T22:24:00Z,27.8398,-97.0727,1.785,11111222 
TCOON,ioos:station:TCOON:009:1,2019-08-05T23:24:00Z,27.8398,-97.0727,1.831,11111222 
TCOON,ioos:station:TCOON:009:1,2019-08-06T00:24:00Z,27.8398,-97.0727,1.828,11111222 
TCOON,ioos:station:TCOON:009:1,2019-08-06T01:24:00Z,27.8398,-97.0727,1.807,11111222 
TCOON,ioos:station:TCOON:009:1,2019-08-06T02:24:00Z,27.8398,-97.0727,1.79,11111222 
TCOON,ioos:station:TCOON:009:1,2019-08-06T03:24:00Z,27.8398,-97.0727,1.791,11111222 
TCOON,ioos:station:TCOON:009:1,2019-08-06T04:24:00Z,27.8398,-97.0727,1.764,11111222 
TCOON,ioos:station:TCOON:009:1,2019-08-06T05:24:00Z,27.8398,-97.0727,1.741,11111222 
TCOON,ioos:station:TCOON:009:1,2019-08-06T06:24:00Z,27.8398,-97.0727,1.729,11111222 
TCOON,ioos:station:TCOON:009:1,2019-08-06T07:24:00Z,27.8398,-97.0727,1.719,11111222 
TCOON,ioos:station:TCOON:009:1,2019-08-06T08:24:00Z,27.8398,-97.0727,1.701,11111222 
TCOON,ioos:station:TCOON:009:1,2019-08-06T09:24:00Z,27.8398,-97.0727,1.732,11111222 
TCOON,ioos:station:TCOON:009:1,2019-08-06T10:24:00Z,27.8398,-97.0727,1.784,11111222 
TCOON,ioos:station:TCOON:009:1,2019-08-06T11:24:00Z,27.8398,-97.0727,1.793,11111222 
TCOON,ioos:station:TCOON:009:1,2019-08-06T12:24:00Z,27.8398,-97.0727,1.823,11111222 
TCOON,ioos:station:TCOON:009:1,2019-08-06T13:24:00Z,27.8398,-97.0727,1.846,11111222 
TCOON,ioos:station:TCOON:009:1,2019-08-06T14:24:00Z,27.8398,-97.0727,1.786,11111222 
TCOON,ioos:station:TCOON:009:1,2019-08-06T15:24:00Z,27.8398,-97.0727,1.772,11111222 
TCOON,ioos:station:TCOON:009:1,2019-08-06T16:24:00Z,27.8398,-97.0727,1.778,11111222 
TCOON,ioos:station:TCOON:009:1,2019-08-06T17:30:00Z,27.8398,-97.0727,1.713,11111222 
TCOON,ioos:station:TCOON:009:1,2019-08-06T18:24:00Z,27.8398,-97.0727,1.675,11111222 
TCOON,ioos:station:TCOON:009:1,2019-08-06T19:24:00Z,27.8398,-97.0727,1.647,11111222 
TCOON,ioos:station:TCOON:009:1,2019-08-06T20:24:00Z,27.8398,-97.0727,1.644,11111222 
TCOON,ioos:station:TCOON:009:1,2019-08-06T21:24:00Z,27.8398,-97.0727,1.686,11111222 
TCOON,ioos:station:TCOON:009:1,2019-08-06T22:24:00Z,27.8398,-97.0727,1.678,11111222 
TCOON,ioos:station:TCOON:009:1,2019-08-06T23:24:00Z,27.8398,-97.0727,1.738,11111222 
TCOON,ioos:station:TCOON:009:1,2019-08-07T00:24:00Z,27.8398,-97.0727,1.768,11111222 
TCOON,ioos:station:TCOON:009:1,2019-08-07T01:24:00Z,27.8398,-97.0727,1.784,11111222 
TCOON,ioos:station:TCOON:009:1,2019-08-07T02:24:00Z,27.8398,-97.0727,1.801,11111222 
TCOON,ioos:station:TCOON:009:1,2019-08-07T03:24:00Z,27.8398,-97.0727,1.793,11111222 
TCOON,ioos:station:TCOON:009:1,2019-08-07T04:24:00Z,27.8398,-97.0727,1.791,11111222 
TCOON,ioos:station:TCOON:009:1,2019-08-07T05:24:00Z,27.8398,-97.0727,1.795,11111222 
TCOON,ioos:station:TCOON:009:1,2019-08-07T06:24:00Z,27.8398,-97.0727,1.8,11111222 
TCOON,ioos:station:TCOON:009:1,2019-08-07T07:24:00Z,27.8398,-97.0727,1.768,11111222 
TCOON,ioos:station:TCOON:009:1,2019-08-07T08:24:00Z,27.8398,-97.0727,1.745,11111222 
TCOON,ioos:station:TCOON:009:1,2019-08-07T09:24:00Z,27.8398,-97.0727,1.775,11111222 
TCOON,ioos:station:TCOON:009:1,2019-08-07T10:24:00Z,27.8398,-97.0727,1.786,11111222 
TCOON,ioos:station:TCOON:009:1,2019-08-07T11:24:00Z,27.8398,-97.0727,1.791,11111222 
TCOON,ioos:station:TCOON:009:1,2019-08-07T12:24:00Z,27.8398,-97.0727,1.79,11111222 
TCOON,ioos:station:TCOON:009:1,2019-08-07T13:24:00Z,27.8398,-97.0727,1.809,11111222 
TCOON,ioos:station:TCOON:009:1,2019-08-07T14:24:00Z,27.8398,-97.0727,1.801,11111222 
TCOON,ioos:station:TCOON:009:1,2019-08-07T15:30:00Z,27.8398,-97.0727,1.755,11111222 
TCOON,ioos:station:TCOON:009:1,2019-08-07T16:24:00Z,27.8398,-97.0727,1.764,11111222 
TCOON,ioos:station:TCOON:009:1,2019-08-07T17:24:00Z,27.8398,-97.0727,1.669,11111222 
TCOON,ioos:station:TCOON:009:1,2019-08-07T18:24:00Z,27.8398,-97.0727,1.655,11111222 
TCOON,ioos:station:TCOON:009:1,2019-08-07T19:24:00Z,27.8398,-97.0727,1.603,11111222 
TCOON,ioos:station:TCOON:009:1,2019-08-07T20:24:00Z,27.8398,-97.0727,1.584,11111222 
TCOON,ioos:station:TCOON:009:1,2019-08-07T21:24:00Z,27.8398,-97.0727,1.58,11111222 
TCOON,ioos:station:TCOON:009:1,2019-08-07T22:24:00Z,27.8398,-97.0727,1.592,11111222 
TCOON,ioos:station:TCOON:009:1,2019-08-07T23:24:00Z,27.8398,-97.0727,1.599,11111222 
TCOON,ioos:station:TCOON:009:1,2019-08-08T00:24:00Z,27.8398,-97.0727,1.663,11111222 
TCOON,ioos:station:TCOON:009:1,2019-08-08T01:24:00Z,27.8398,-97.0727,1.696,11111222 
TCOON,ioos:station:TCOON:009:1,2019-08-08T02:24:00Z,27.8398,-97.0727,1.744,11111222 
TCOON,ioos:station:TCOON:009:1,2019-08-08T03:24:00Z,27.8398,-97.0727,1.776,11111222 
TCOON,ioos:station:TCOON:009:1,2019-08-08T04:24:00Z,27.8398,-97.0727,1.806,11111222 
TCOON,ioos:station:TCOON:009:1,2019-08-08T06:24:00Z,27.8398,-97.0727,1.781,11111222 
TCOON,ioos:station:TCOON:009:1,2019-08-08T07:24:00Z,27.8398,-97.0727,1.781,11111222 
TCOON,ioos:station:TCOON:009:1,2019-08-08T08:24:00Z,27.8398,-97.0727,1.791,11111222 
TCOON,ioos:station:TCOON:009:1,2019-08-08T09:24:00Z,27.8398,-97.0727,1.802,11111222 
TCOON,ioos:station:TCOON:009:1,2019-08-08T10:24:00Z,27.8398,-97.0727,1.764,11111222 
TCOON,ioos:station:TCOON:009:1,2019-08-08T11:24:00Z,27.8398,-97.0727,1.797,11111222 
TCOON,ioos:station:TCOON:009:1,2019-08-08T12:24:00Z,27.8398,-97.0727,1.817,11111222 
TCOON,ioos:station:TCOON:009:1,2019-08-08T13:24:00Z,27.8398,-97.0727,1.765,11111222 
TCOON,ioos:station:TCOON:009:1,2019-08-08T14:24:00Z,27.8398,-97.0727,1.762,11111222 
TCOON,ioos:station:TCOON:009:1,2019-08-08T15:24:00Z,27.8398,-97.0727,1.755,11111222 
TCOON,ioos:station:TCOON:009:1,2019-08-08T16:30:00Z,27.8398,-97.0727,1.656,11111222 
TCOON,ioos:station:TCOON:009:1,2019-08-08T17:30:00Z,27.8398,-97.0727,1.642,11111222 
TCOON,ioos:station:TCOON:009:1,2019-08-08T18:30:00Z,27.8398,-97.0727,1.599,11111222 
TCOON,ioos:station:TCOON:009:1,2019-08-08T19:24:00Z,27.8398,-97.0727,1.576,11111222 
TCOON,ioos:station:TCOON:009:1,2019-08-08T20:24:00Z,27.8398,-97.0727,1.516,11111222 
TCOON,ioos:station:TCOON:009:1,2019-08-08T21:24:00Z,27.8398,-97.0727,1.503,11111222 
TCOON,ioos:station:TCOON:009:1,2019-08-08T22:24:00Z,27.8398,-97.0727,1.507,11111222 
TCOON,ioos:station:TCOON:009:1,2019-08-08T23:24:00Z,27.8398,-97.0727,1.523,11111222 
TCOON,ioos:station:TCOON:009:1,2019-08-09T00:24:00Z,27.8398,-97.0727,1.543,11111222 
TCOON,ioos:station:TCOON:009:1,2019-08-09T01:24:00Z,27.8398,-97.0727,1.586,11111222 
TCOON,ioos:station:TCOON:009:1,2019-08-09T02:24:00Z,27.8398,-97.0727,1.673,11111222 
TCOON,ioos:station:TCOON:009:1,2019-08-09T03:24:00Z,27.8398,-97.0727,1.692,11111222 
TCOON,ioos:station:TCOON:009:1,2019-08-09T04:24:00Z,27.8398,-97.0727,1.73,11111222 
TCOON,ioos:station:TCOON:009:1,2019-08-09T05:24:00Z,27.8398,-97.0727,1.761,11111222 
TCOON,ioos:station:TCOON:009:1,2019-08-09T06:24:00Z,27.8398,-97.0727,1.778,11111222 
TCOON,ioos:station:TCOON:009:1,2019-08-09T07:24:00Z,27.8398,-97.0727,1.766,11111222 
TCOON,ioos:station:TCOON:009:1,2019-08-09T08:24:00Z,27.8398,-97.0727,1.76,11111222 
TCOON,ioos:station:TCOON:009:1,2019-08-09T09:24:00Z,27.8398,-97.0727,1.782,11111222 
TCOON,ioos:station:TCOON:009:1,2019-08-09T10:24:00Z,27.8398,-97.0727,1.781,11111222 
TCOON,ioos:station:TCOON:009:1,2019-08-09T11:24:00Z,27.8398,-97.0727,1.786,11111222 
TCOON,ioos:station:TCOON:009:1,2019-08-09T12:24:00Z,27.8398,-97.0727,1.791,11111222 
TCOON,ioos:station:TCOON:009:1,2019-08-09T13:24:00Z,27.8398,-97.0727,1.749,11111222 
TCOON,ioos:station:TCOON:009:1,2019-08-09T14:24:00Z,27.8398,-97.0727,1.75,11111222 
TCOON,ioos:station:TCOON:009:1,2019-08-09T15:24:00Z,27.8398,-97.0727,1.715,11111222 
TCOON,ioos:station:TCOON:009:1,2019-08-09T16:24:00Z,27.8398,-97.0727,1.72,11111222 
TCOON,ioos:station:TCOON:009:1,2019-08-09T17:24:00Z,27.8398,-97.0727,1.662,11111222 
TCOON,ioos:station:TCOON:009:1,2019-08-09T18:24:00Z,27.8398,-97.0727,1.575,11111222 
TCOON,ioos:station:TCOON:009:1,2019-08-09T19:24:00Z,27.8398,-97.0727,1.578,11111222 
TCOON,ioos:station:TCOON:009:1,2019-08-09T20:24:00Z,27.8398,-97.0727,1.515,11111222 
TCOON,ioos:station:TCOON:009:1,2019-08-09T21:24:00Z,27.8398,-97.0727,1.478,11111222 
TCOON,ioos:station:TCOON:009:1,2019-08-09T22:24:00Z,27.8398,-97.0727,1.473,11111222 
TCOON,ioos:station:TCOON:009:1,2019-08-09T23:24:00Z,27.8398,-97.0727,1.428,11111222 
TCOON,ioos:station:TCOON:009:1,2019-08-10T00:24:00Z,27.8398,-97.0727,1.454,11111222 
TCOON,ioos:station:TCOON:009:1,2019-08-10T01:24:00Z,27.8398,-97.0727,1.49,11111222 
TCOON,ioos:station:TCOON:009:1,2019-08-10T02:24:00Z,27.8398,-97.0727,1.55,11111222 
TCOON,ioos:station:TCOON:009:1,2019-08-10T03:54:00Z,27.8398,-97.0727,1.652,11111222 
TCOON,ioos:station:TCOON:009:1,2019-08-10T04:54:00Z,27.8398,-97.0727,1.708,11111222 
TCOON,ioos:station:TCOON:009:1,2019-08-10T05:54:00Z,27.8398,-97.0727,1.74,11111222 
TCOON,ioos:station:TCOON:009:1,2019-08-10T06:54:00Z,27.8398,-97.0727,1.741,11111222 
TCOON,ioos:station:TCOON:009:1,2019-08-10T07:54:00Z,27.8398,-97.0727,1.75,11111222 
TCOON,ioos:station:TCOON:009:1,2019-08-10T08:54:00Z,27.8398,-97.0727,1.775,11111222 
TCOON,ioos:station:TCOON:009:1,2019-08-10T09:54:00Z,27.8398,-97.0727,1.795,11111222 
TCOON,ioos:station:TCOON:009:1,2019-08-10T10:54:00Z,27.8398,-97.0727,1.78,11111222 
TCOON,ioos:station:TCOON:009:1,2019-08-10T11:54:00Z,27.8398,-97.0727,1.759,11111222 
TCOON,ioos:station:TCOON:009:1,2019-08-10T12:54:00Z,27.8398,-97.0727,1.753,11111222 
TCOON,ioos:station:TCOON:009:1,2019-08-10T13:54:00Z,27.8398,-97.0727,1.742,11111222 
TCOON,ioos:station:TCOON:009:1,2019-08-10T14:54:00Z,27.8398,-97.0727,1.618,11111222 
TCOON,ioos:station:TCOON:009:1,2019-08-10T15:54:00Z,27.8398,-97.0727,1.763,11111222 
TCOON,ioos:station:TCOON:009:1,2019-08-10T16:54:00Z,27.8398,-97.0727,1.723,11111222 
TCOON,ioos:station:TCOON:009:1,2019-08-10T17:54:00Z,27.8398,-97.0727,1.676,11111222 
TCOON,ioos:station:TCOON:009:1,2019-08-10T18:54:00Z,27.8398,-97.0727,1.63,11111222 
TCOON,ioos:station:TCOON:009:1,2019-08-10T19:54:00Z,27.8398,-97.0727,1.568,11111222 
TCOON,ioos:station:TCOON:009:1,2019-08-10T20:54:00Z,27.8398,-97.0727,1.518,11111222 
TCOON,ioos:station:TCOON:009:1,2019-08-10T21:54:00Z,27.8398,-97.0727,1.487,11111222 
TCOON,ioos:station:TCOON:009:1,2019-08-10T22:54:00Z,27.8398,-97.0727,1.444,11111222 
TCOON,ioos:station:TCOON:009:1,2019-08-10T23:54:00Z,27.8398,-97.0727,1.437,11111222 
TCOON,ioos:station:TCOON:009:1,2019-08-11T00:54:00Z,27.8398,-97.0727,1.422,11111222 
TCOON,ioos:station:TCOON:009:1,2019-08-11T01:54:00Z,27.8398,-97.0727,1.491,11111222 
TCOON,ioos:station:TCOON:009:1,2019-08-11T05:54:00Z,27.8398,-97.0727,1.714,11111222 
TCOON,ioos:station:TCOON:009:1,2019-08-11T07:54:00Z,27.8398,-97.0727,1.737,11111222 
TCOON,ioos:station:TCOON:009:1,2019-08-11T09:54:00Z,27.8398,-97.0727,1.788,11111222 
TCOON,ioos:station:TCOON:009:1,2019-08-11T10:54:00Z,27.8398,-97.0727,1.767,11111222 
TCOON,ioos:station:TCOON:009:1,2019-08-11T12:54:00Z,27.8398,-97.0727,1.755,11111222 
TCOON,ioos:station:TCOON:009:1,2019-08-11T21:24:00Z,27.8398,-97.0727,1.5,11111222 
TCOON,ioos:station:TCOON:009:1,2019-08-12T08:06:00Z,27.8398,-97.0727,1.699,11111222 
TCOON,ioos:station:TCOON:009:1,2019-08-12T11:54:00Z,27.8398,-97.0727,1.726,11111222 
TCOON,ioos:station:TCOON:009:1,2019-08-12T12:54:00Z,27.8398,-97.0727,1.708,11111222 
TCOON,ioos:station:TCOON:009:1,2019-08-12T13:24:00Z,27.8398,-97.0727,1.725,11111222 
TCOON,ioos:station:TCOON:009:1,2019-08-12T14:24:00Z,27.8398,-97.0727,1.735,11111222 
TCOON,ioos:station:TCOON:009:1,2019-08-12T15:24:00Z,27.8398,-97.0727,1.688,11111222 
TCOON,ioos:station:TCOON:009:1,2019-08-12T16:30:00Z,27.8398,-97.0727,1.713,11111222 
TCOON,ioos:station:TCOON:009:1,2019-08-12T17:24:00Z,27.8398,-97.0727,1.699,11111222 
TCOON,ioos:station:TCOON:009:1,2019-08-12T18:24:00Z,27.8398,-97.0727,1.69,11111222 
TCOON,ioos:station:TCOON:009:1,2019-08-12T19:24:00Z,27.8398,-97.0727,1.626,11111222 
TCOON,ioos:station:TCOON:009:1,2019-08-12T20:24:00Z,27.8398,-97.0727,1.583,11111222 
TCOON,ioos:station:TCOON:009:1,2019-08-12T21:24:00Z,27.8398,-97.0727,1.562,11111222 
TCOON,ioos:station:TCOON:009:1,2019-08-12T22:24:00Z,27.8398,-97.0727,1.483,11111222 
TCOON,ioos:station:TCOON:009:1,2019-08-12T23:24:00Z,27.8398,-97.0727,1.432,11111222 
TCOON,ioos:station:TCOON:009:1,2019-08-13T00:24:00Z,27.8398,-97.0727,1.406,11111222 
TCOON,ioos:station:TCOON:009:1,2019-08-13T01:24:00Z,27.8398,-97.0727,1.369,11111222 
TCOON,ioos:station:TCOON:009:1,2019-08-13T02:24:00Z,27.8398,-97.0727,1.394,11111222 
TCOON,ioos:station:TCOON:009:1,2019-08-13T03:24:00Z,27.8398,-97.0727,1.416,11111222 
TCOON,ioos:station:TCOON:009:1,2019-08-13T04:24:00Z,27.8398,-97.0727,1.492,11111222 
TCOON,ioos:station:TCOON:009:1,2019-08-13T05:24:00Z,27.8398,-97.0727,1.564,11111222 
TCOON,ioos:station:TCOON:009:1,2019-08-13T06:24:00Z,27.8398,-97.0727,1.619,11111222 
TCOON,ioos:station:TCOON:009:1,2019-08-13T07:54:00Z,27.8398,-97.0727,1.703,11111222 
TCOON,ioos:station:TCOON:009:1,2019-08-13T08:54:00Z,27.8398,-97.0727,1.705,11111222 
TCOON,ioos:station:TCOON:009:1,2019-08-13T09:54:00Z,27.8398,-97.0727,1.683,11111222 
TCOON,ioos:station:TCOON:009:1,2019-08-13T10:54:00Z,27.8398,-97.0727,1.73,11111222 
TCOON,ioos:station:TCOON:009:1,2019-08-13T11:24:00Z,27.8398,-97.0727,1.727,11111222 
TCOON,ioos:station:TCOON:009:1,2019-08-13T12:24:00Z,27.8398,-97.0727,1.692,11111222 
TCOON,ioos:station:TCOON:009:1,2019-08-13T13:24:00Z,27.8398,-97.0727,1.736,11111222 
TCOON,ioos:station:TCOON:009:1,2019-08-13T14:24:00Z,27.8398,-97.0727,1.691,11111222 
TCOON,ioos:station:TCOON:009:1,2019-08-13T15:24:00Z,27.8398,-97.0727,1.724,11111222 
TCOON,ioos:station:TCOON:009:1,2019-08-13T16:24:00Z,27.8398,-97.0727,1.714,11111222 
TCOON,ioos:station:TCOON:009:1,2019-08-13T17:24:00Z,27.8398,-97.0727,1.708,11111222 
TCOON,ioos:station:TCOON:009:1,2019-08-13T18:24:00Z,27.8398,-97.0727,1.69,11111222 
TCOON,ioos:station:TCOON:009:1,2019-08-13T19:24:00Z,27.8398,-97.0727,1.663,11111222 
TCOON,ioos:station:TCOON:009:1,2019-08-13T20:24:00Z,27.8398,-97.0727,1.627,11111222 
TCOON,ioos:station:TCOON:009:1,2019-08-13T21:24:00Z,27.8398,-97.0727,1.563,11111222 
TCOON,ioos:station:TCOON:009:1,2019-08-13T22:24:00Z,27.8398,-97.0727,1.512,11111222 
TCOON,ioos:station:TCOON:009:1,2019-08-13T23:36:00Z,27.8398,-97.0727,1.436,11111222 
TCOON,ioos:station:TCOON:009:1,2019-08-14T00:24:00Z,27.8398,-97.0727,1.42,11111222 
TCOON,ioos:station:TCOON:009:1,2019-08-14T01:24:00Z,27.8398,-97.0727,1.386,11111222 